Regional Weather Roundup
Issued by NWS Charleston, SC

Current Version | Previous Version | Text Only | Print | Product List | Glossary Off
Versions: 1 2 3 4 5 6 7 8 9 10 11 12 13 14 15 16 17 18 19 20 21 22 23 24 25 26 27 28 29 30 31 32 33 34 35 36 37 38 39 40 41 42 43 44 45 46 47 48 49 50

000
ASUS42 KCHS 300713
RWRCHS

REGIONAL WEATHER ROUNDUP
NATIONAL WEATHER SERVICE CHARLESTON SC
300 AM EDT MON MAY 30 2016

NOTE: "FAIR" INDICATES FEW OR NO CLOUDS BELOW 12,000 FEET WITH NO
SIGNIFICANT WEATHER AND/OR OBSTRUCTIONS TO VISIBILITY.

NOT ALL STATIONS ARE QUALITY CONTROLLED. USE DATA WITH CAUTION...
ESPECIALLY DEWPOINT OBSERVATIONS.

SCZ027-030-031-034>040-042>050-300800-
...SOUTHEAST SOUTH CAROLINA...

CITY           SKY/WX    TMP DP  RH WIND       PRES   REMARKS
N CHARLESTON   CLOUDY    71  68  90 W5        29.89F
WATERFRONT PRK   N/A     71  69  93 VRB2      29.88F
MOUNT PLEASANT CLOUDY    70  70 100 CALM      29.89F FOG
JOHNS ISLAND   CLOUDY    72  70  94 CALM      29.90F
PINOPOLIS        N/A     73  70  88 NE7       29.83F
MONCKS CORNER  CLOUDY    68  64  88 CALM      29.89F
SUMMERVILLE    CLOUDY    70  70 100 W3        29.91
BEAUFORT MCAS  CLOUDY    69  67  93 W8        29.92F
BEAUFORT ARPT  CLOUDY    70  68  94 NW9       29.92S
HILTON HEAD IS PTCLDY    70  68  94 W5        29.93F
WALTERBORO     DRIZZLE   70  70 100 W3        29.92F
ALLENDALE      CLOUDY    68  66  94 NW3       29.93F

...SOUTHERN MIDLANDS AND PEE DEE...

CITY           SKY/WX    TMP DP  RH WIND       PRES   REMARKS
GEORGETOWN     CLOUDY    70  68  94 SE7       29.90F
KINGSTREE      CLOUDY    70  68  94 CALM      29.91F
ORANGEBURG     RAIN      69  67  93 N7        29.93F FOG
BARNWELL       FAIR      72  72 100 NW7       29.95F
AIKEN          PTSUNNY   68  61  77 N6        30.00F
MANNING        DRIZZLE   68  68 100 N3        29.91F
COLUMBIA       CLOUDY    71  63  75 N8        29.94F
SUMTER         CLOUDY    69  68  95 N8        29.91F
FLORENCE       CLOUDY    72  69  90 E7        29.93F
MYRTLE BEACH   CLOUDY    73  64  73 SE16      29.94F
N MYRTLE BEACH CLOUDY    75  69  81 SE7       29.92F

$$

GAZ063-065-086>088-099>101-113>116-118-119-134>141-150-300800-
...SOUTHEAST GEORGIA...

CITY           SKY/WX    TMP DP  RH WIND       PRES   REMARKS
SAVANNAH ARPT  CLOUDY    69  64  84 W6        29.95F
HUNTER AAF     CLOUDY    69  67  92 W3        29.92F
FORT STEWART   CLOUDY    71  62  71 W1        29.93F
STATESBORO     CLOUDY    68  66  93 NW5       29.96F
SYLVANIA       CLOUDY    70  66  87 NW5       29.95F
CLAXTON        FAIR      67  66  96 W6        29.96F

...CSRA...CENTRAL AND FAR SOUTHEAST GEORGIA...

CITY           SKY/WX    TMP DP  RH WIND       PRES   REMARKS
THOMSON        PTCLDY    63  63 100 CALM      30.03F
AUGUSTA-BUSH   CLOUDY    67  64  90 NW7       29.96F
AUGUSTA-DANIEL CLOUDY    69  61  75 N7        29.97F
SWAINSBORO     FAIR      68  63  83 CALM      29.99F
VIDALIA        CLOUDY    72  61  68 NW3       29.99F
EASTMAN        PTSUNNY  N/A N/A N/A CALM      30.02F
HAZLEHURST     PTSUNNY   71  65  82 CALM      29.98F
ALMA           PTCLDY    66  64  93 CALM      29.98F
WAYCROSS       CLOUDY    70  66  88 CALM      29.98F
JESUP          FAIR      68  59  73 NE3       29.98F
BAXLEY         FAIR      70  64  83 CALM      29.98F
BRUNSWICK      CLOUDY    77  64  65 W3        29.98S
SAINT SIMONS   CLOUDY    74  63  68 CALM      29.96F

$$

SCZ027-028-034-036>038-045-046-048>050-GAZ119-141-300800-
...LAKE AND SUPPLEMENTAL COASTAL OBSERVATIONS...

STATION/POSITION TIME  TEMP    WIND        PRES    WAVE   SWELL
                       AIR SEA DIR/SP/G            HT/PER HT/PER/DIR
                 (UTC) (F)     (DEG/KT/KT) (MB)    (FT/S) (FT/S/D)
WINYAH BAY       0545   73     130/ 12     1012.0
LAKE MURRAY      0600   70     360/  4/  8 1014.9F
ACE BASIN NERRS  NOT AVBL
FORT PULASKI     0600   71 75  280/ 11/ 12 1014.3F
SAPELO ISLAND    0600   75     280/  5     1015.0F

$$

ANZ835-935-AMZ111-154-330-350-352-354-370-450-454-472-300800-
...C-MAN AND BUOY OBSERVATIONS...

STATION/POSITION TIME  TEMP    WIND        PRES    WAVE   SWELL
                       AIR SEA DIR/SP/G            HT/PER HT/PER/DIR
                 (UTC) (F)     (DEG/KT/KT) (MB)    (FT/S) (FT/S/D)
BUOY 41004       0650   74 77  190/ 17/ 19 1012.0F   6/ 7   2/12
BUOY 41008       0650   74 76  260/ 10/ 12 1014.2F   2/ 8   2/ 90/ 8
FOLLY BEACH CMAN 0600   70     260/  4/  5 1012.8F
CAPERS NEARSHORE 0608   72 76  270/ 10/ 12 1011.8F
FRIPP NEARSHORE  0608   71 75  290/ 14/ 17 1012.6F


STATION/POSITION TIME  TEMP    WIND        PRES    WAVE   SWELL
                       AIR SEA DIR/SP/G            HT/PER HT/PER/DIR
                 (UTC) (F)     (DEG/KT/KT) (MB)    (FT/S) (FT/S/D)
5E ST. MARYS GA  0601      78                N/A     2/ 8
FRYING PAN BUOY  0600   78 78  170/ 16/ 19 1014.1F
BUOY 41025       0650   78 81  160/ 19/ 21 1016.0F   6/ 8   3/140/ 8
CAPE LOOKOUT NC  0600   76     160/ 10/ 12 1015.7F
BUOY 41002       0650   75 76  130/ 14/ 17 1016.5F   4/ 8   3/ 90/ 8
BUOY 41010       0620   78 79  160/  8/ 10 1015.6F
ST AUGUSTINE FL  0700   72 80  240/  9/ 12 1015.7F


$$




USA.gov is the U.S. government's official web portal to all federal, state and local government web resources and services.